Location: Boston
(42.3580°N, 71.0600°W)
Time: 16:28:13
(UTC-05:00)

Tiangong 2 - Pass Details

Date: 11 October 2017
Orbit: 386 x 389 km, 42.8° (Epoch: 17 December)

Event Time Altitude Azimuth Distance (km) Brightness Sun altitude
Exits shadow 06:11:17 11° 261° (W) 1,341 3.2 -8.5°
Maximum altitude 06:14:18 90° 176° (S) 395 1.1 -7.9°
Drops below altitude 10° 06:17:32 10° 82° (E) 1,426 5.6 -7.3°
Sets 06:19:37 0° 83° (E) 2,284 7.1 -6.9°
